Location: Pradons
(44.4746°N, 4.3578°E)
Time: 09:28:48
(UTC+00:00)

Cosmos 2369 - Pass Details

Date: 09 April 2020
Orbit: 840 x 855 km, 71.0° (Epoch: 04 June)

Event Time Altitude Azimuth Distance (km) Brightness Sun altitude
Rises 21:07:18 0° 336° (NNW) 3,404 7.9 -26.8°
Reaches altitude 10° 21:09:46 10° 339° (NNW) 2,466 7.0 -27.1°
Enters shadow 21:15:12 66° 48° (NE) 919 3.7 -27.7°
